Tracking 32139 objects as of 15-Nov-2025
HD Live streaming from Space Station
objects crossing your sky now

STARLINK-35387

Track STARLINK-35387 now!
10-day predictions
STARLINK-35387 is classified as:


NORAD ID: 65909
Int'l Code: 2025-224AD
Perigee: 481.6 km
Apogee: 483.3 km
Inclination: 53.2 °
Period: 94.1 minutes
Semi major axis: 6853 km
RCS: Unknown
Launch date: October 7, 2025
Source: United States (US)
Launch site: AIR FORCE EASTERN TEST RANGE (AFETR)
Your satellite tracking list
Your tracking list is empty




NASA's NSSDC Master Catalog

Two Line Element Set (TLE):
1 65909U 25224AD  25319.50003471  .00063834  00000-0  21513-2 0  9992
2 65909  53.1610 182.0485 0001223 107.2382  10.2293 15.30163648  6051
Source of the keplerian elements: AFSPC